,,Stat6,,Stat2,,Stat8,,Stat9,,Stat10,,Wind1,,Wind1,
time,status,PA1M_AVG,status,PR1M_SUM,status,RH1M_AVG,status,SR1M_AVG,status,TA1M_AVG,status,W1dAve1m,status,W1sAve1m,
2008-02-12, 00:00:00,VALID,917.421,VALID,0,VALID,91.0723,VALID,0,VALID,19.5778,VALID,137,VALID,1.92396,
2008-02-12, 00:01:00,VALID,917.423,VALID,0,VALID,91.188,VALID,0,VALID,19.5878,VALID,136,VALID,1.96894,
2008-02-12, 00:02:00,VALID,917.392,VALID,0,VALID,91.1512,VALID,-0.0509425,VALID,19.61,VALID,135,VALID,1.81441,
2008-02-12, 00:03:00,VALID,917.401,VALID,0,VALID,91.0087,VALID,0,VALID,19.6199,VALID,125,VALID,1.0162,
2008-02-12, 00:04:00,VALID,917.413,VALID,0,VALID,91.0774,VALID,-0.0169808,VALID,19.617,VALID,127,VALID,1.36026,
2008-02-12, 00:05:00,VALID,917.42,VALID,0,VALID,91.4869,VALID,0,VALID,19.581,VALID,138,VALID,2.11585,
2008-02-12, 00:06:00,VALID,917.434,VALID,0,VALID,91.7196,VALID,0.0169808,VALID,19.5256,VALID,152,VALID,1.738,
2008-02-12, 00:07:00,VALID,917.447,VALID,0,VALID,91.6623,VALID,0,VALID,19.5161,VALID,152,VALID,2.00533,
2008-02-12, 00:08:00,VALID,917.454,VALID,0,VALID,91.361,VALID,0,VALID,19.5618,VALID,158,VALID,1.38105,
2008-02-12, 00:09:00,VALID,917.467,VALID,0,VALID,91.3991,VALID,-0.0169808,VALID,19.5778,VALID,157,VALID,1.98438,
2008-02-12, 00:10:00,VALID,917.483,VALID,0,VALID,91.3343,VALID,0,VALID,19.594,VALID,152,VALID,1.62348,
2008-02-12, 00:11:00,VALID,917.483,VALID,0,VALID,91.2338,VALID,0,VALID,19.6262,VALID,145,VALID,1.52846,
2008-02-12, 00:12:00,VALID,917.493,VALID,0,VALID,91.2376,VALID,-0.0169808,VALID,19.6294,VALID,146,VALID,0.91311,
2008-02-12, 00:13:00,VALID,917.482,VALID,0,VALID,91.4881,VALID,0.0169808,VALID,19.597,VALID,125,VALID,1.27229,
2008-02-12, 00:14:00,VALID,917.493,VALID,0,VALID,91.7971,VALID,0,VALID,19.5583,VALID,133,VALID,1.52251,
2008-02-12, 00:15:00,VALID,917.495,VALID,0,VALID,91.9802,VALID,0,VALID,19.5386,VALID,122,VALID,1.3293,
2008-02-12, 00:16:00,VALID,917.479,VALID,0,VALID,92.3465,VALID,0.0169808,VALID,19.4864,VALID,125,VALID,1.60316,
2008-02-12, 00:17:00,VALID,917.46,VALID,0,VALID,92.8182,VALID,0.0339617,VALID,19.4345,VALID,151,VALID,1.71626,
2008-02-12, 00:18:00,VALID,917.444,VALID,0,VALID,93.1298,VALID,-0.0169808,VALID,19.4026,VALID,135,VALID,1.57813,
2008-02-12, 00:19:00,VALID,917.436,VALID,0,VALID,93.3167,VALID,-0.0169808,VALID,19.3701,VALID,147,VALID,1.50586,
2008-02-12, 00:20:00,VALID,917.4,VALID,0,VALID,93.4668,VALID,0.0169808,VALID,19.3669,VALID,153,VALID,2.52763,
2008-02-12, 00:21:00,VALID,917.392,VALID,0,VALID,93.2239,VALID,-0.0339617,VALID,19.4251,VALID,158,VALID,1.3936,
2008-02-12, 00:22:00,VALID,917.365,VALID,0,VALID,92.925,VALID,0.0169808,VALID,19.4737,VALID,155,VALID,1.81793,
2008-02-12, 00:23:00,VALID,917.342,VALID,0,VALID,92.5906,VALID,0.0169808,VALID,19.5194,VALID,141,VALID,1.94085,
2008-02-12, 00:24:00,VALID,917.334,VALID,0,VALID,92.4787,VALID,0,VALID,19.5583,VALID,126,VALID,1.84941,
2008-02-12, 00:25:00,VALID,917.318,VALID,0,VALID,92.7368,VALID,0,VALID,19.5324,VALID,121,VALID,2.15091,
2008-02-12, 00:26:00,VALID,917.297,VALID,0,VALID,93.2417,VALID,0,VALID,19.438,VALID,115,VALID,1.65962,
2008-02-12, 00:27:00,VALID,917.281,VALID,0,VALID,93.7554,VALID,-0.0339617,VALID,19.341,VALID,120,VALID,1.68099,
2008-02-12, 00:28:00,VALID,917.277,VALID,0,VALID,94.175,VALID,-0.101885,VALID,19.2905,VALID,129,VALID,1.83097,
2008-02-12, 00:29:00,VALID,917.28,VALID,0,VALID,94.3556,VALID,-0.135847,VALID,19.2683,VALID,124,VALID,1.59484,
2008-02-12, 00:30:00,VALID,917.265,VALID,0,VALID,94.5209,VALID,-0.101885,VALID,19.2321,VALID,127,VALID,1.35138,
2008-02-12, 00:31:00,VALID,917.256,VALID,0,VALID,94.8337,VALID,-0.101885,VALID,19.2094,VALID,136,VALID,1.72865,
2008-02-12, 00:32:00,VALID,917.217,VALID,0,VALID,95.0321,VALID,-0.101885,VALID,19.2062,VALID,138,VALID,1.72148,
2008-02-12, 00:33:00,VALID,917.204,VALID,0,VALID,95.102,VALID,-0.0849042,VALID,19.2092,VALID,130,VALID,1.84737,
2008-02-12, 00:34:00,VALID,917.177,VALID,0,VALID,95.1656,VALID,-0.101885,VALID,19.2127,VALID,139,VALID,1.92355,
2008-02-12, 00:35:00,VALID,917.145,VALID,0,VALID,95.144,VALID,-0.101885,VALID,19.1994,VALID,122,VALID,2.00712,
2008-02-12, 00:36:00,VALID,917.129,VALID,0,VALID,95.3335,VALID,-0.0849042,VALID,19.1702,VALID,133,VALID,2.07937,
2008-02-12, 00:37:00,VALID,917.109,VALID,0,VALID,95.4988,VALID,-0.101885,VALID,19.1635,VALID,136,VALID,2.02363,
2008-02-12, 00:38:00,VALID,917.113,VALID,0,VALID,95.5713,VALID,-0.101885,VALID,19.1478,VALID,118,VALID,2.01321,
2008-02-12, 00:39:00,VALID,917.09,VALID,0,VALID,95.7633,VALID,-0.0849042,VALID,19.0984,VALID,126,VALID,1.48105,
2008-02-12, 00:40:00,VALID,917.076,VALID,0,VALID,95.8981,VALID,-0.0679233,VALID,19.0859,VALID,138,VALID,1.71839,
2008-02-12, 00:41:00,VALID,917.059,VALID,0,VALID,95.9731,VALID,-0.101885,VALID,19.0926,VALID,141,VALID,1.79901,
2008-02-12, 00:42:00,VALID,917.045,VALID,0,VALID,95.9782,VALID,-0.0679233,VALID,19.0919,VALID,145,VALID,2.05905,
2008-02-12, 00:43:00,VALID,917.027,VALID,0,VALID,95.7963,VALID,0.0509425,VALID,19.1004,VALID,152,VALID,2.2141,
2008-02-12, 00:44:00,VALID,917.04,VALID,0,VALID,95.0092,VALID,0.0169808,VALID,19.1852,VALID,159,VALID,2.87969,
2008-02-12, 00:45:00,VALID,917.033,VALID,0,VALID,93.8902,VALID,0.0509425,VALID,19.3178,VALID,161,VALID,2.29015,
2008-02-12, 00:46:00,VALID,917.01,VALID,0,VALID,93.1616,VALID,0.0509425,VALID,19.4735,VALID,158,VALID,2.36719,
2008-02-12, 00:47:00,VALID,917.021,VALID,0,VALID,92.7686,VALID,-0.0169808,VALID,19.5613,VALID,166,VALID,1.27028,
2008-02-12, 00:48:00,VALID,917.006,VALID,0,VALID,92.6402,VALID,0.0509425,VALID,19.574,VALID,153,VALID,1.99092,
2008-02-12, 00:49:00,VALID,916.996,VALID,0,VALID,92.6822,VALID,0.0339617,VALID,19.5843,VALID,159,VALID,1.94407,
2008-02-12, 00:50:00,VALID,916.985,VALID,0,VALID,92.7979,VALID,0,VALID,19.5778,VALID,166,VALID,1.94993,
2008-02-12, 00:51:00,VALID,916.968,VALID,0,VALID,92.8233,VALID,0.0509425,VALID,19.5576,VALID,159,VALID,1.79649,
2008-02-12, 00:52:00,VALID,916.958,VALID,0,VALID,92.583,VALID,0,VALID,19.571,VALID,155,VALID,1.65785,
2008-02-12, 00:53:00,VALID,916.955,VALID,0,VALID,92.4164,VALID,0.0509425,VALID,19.5937,VALID,152,VALID,1.20149,
2008-02-12, 00:54:00,VALID,916.939,VALID,0,VALID,92.2905,VALID,0.0509425,VALID,19.6165,VALID,137,VALID,1.1685,
2008-02-12, 00:55:00,VALID,916.926,VALID,0,VALID,92.1761,VALID,0,VALID,19.6259,VALID,147,VALID,1.96163,
2008-02-12, 00:56:00,VALID,916.926,VALID,0,VALID,92.1341,VALID,0.0169808,VALID,19.6299,VALID,143,VALID,0.776163,
2008-02-12, 00:57:00,VALID,916.925,VALID,0,VALID,92.2816,VALID,0,VALID,19.6172,VALID,152,VALID,1.2467,
2008-02-12, 00:58:00,VALID,916.928,VALID,0,VALID,92.2702,VALID,-0.0169808,VALID,19.6002,VALID,152,VALID,1.98884,
2008-02-12, 00:59:00,VALID,916.906,VALID,0,VALID,92.0782,VALID,0.0339617,VALID,19.613,VALID,152,VALID,2.43857,
2008-02-12, 01:00:00,VALID,916.905,VALID,0,VALID,91.7145,VALID,0,VALID,19.6649,VALID,129,VALID,1.62882,
2008-02-12, 01:01:00,VALID,916.902,VALID,0,VALID,91.6013,VALID,0.0169808,VALID,19.6848,VALID,113,VALID,1.4827,
2008-02-12, 01:02:00,VALID,916.905,VALID,0,VALID,91.923,VALID,0,VALID,19.6329,VALID,123,VALID,0.679506,
2008-02-12, 01:03:00,VALID,916.89,VALID,0,VALID,92.335,VALID,0,VALID,19.5713,VALID,139,VALID,1.70903,
2008-02-12, 01:04:00,VALID,916.908,VALID,0,VALID,92.4609,VALID,0,VALID,19.5391,VALID,130,VALID,1.45455,
2008-02-12, 01:05:00,VALID,916.91,VALID,0,VALID,92.7254,VALID,0,VALID,19.5002,VALID,139,VALID,1.63608,
2008-02-12, 01:06:00,VALID,916.913,VALID,0,VALID,92.9924,VALID,0,VALID,19.4478,VALID,142,VALID,1.51669,
2008-02-12, 01:07:00,VALID,916.897,VALID,0,VALID,93.2633,VALID,0,VALID,19.4023,VALID,134,VALID,1.25195,
2008-02-12, 01:08:00,VALID,916.896,VALID,0,VALID,93.4502,VALID,0,VALID,19.3734,VALID,141,VALID,1.05749,
2008-02-12, 01:09:00,VALID,916.87,VALID,0,VALID,93.524,VALID,0,VALID,19.3437,VALID,132,VALID,1.82292,
2008-02-12, 01:10:00,VALID,916.875,VALID,0,VALID,93.5138,VALID,0.0169808,VALID,19.3637,VALID,136,VALID,1.93021,
2008-02-12, 01:11:00,VALID,916.861,VALID,0,VALID,93.4668,VALID,0,VALID,19.3699,VALID,140,VALID,0.62686,
2008-02-12, 01:12:00,VALID,916.857,VALID,0,VALID,93.4871,VALID,-0.0339617,VALID,19.3442,VALID,145,VALID,1.42111,
2008-02-12, 01:13:00,VALID,916.86,VALID,0,VALID,93.6104,VALID,-0.101885,VALID,19.323,VALID,147,VALID,1.78906,
2008-02-12, 01:14:00,VALID,916.854,VALID,0,VALID,93.6893,VALID,-0.101885,VALID,19.3095,VALID,138,VALID,1.43459,
2008-02-12, 01:15:00,VALID,916.844,VALID,0,VALID,93.7223,VALID,-0.0849042,VALID,19.3167,VALID,144,VALID,1.627,
2008-02-12, 01:16:00,VALID,916.841,VALID,0,VALID,93.6728,VALID,-0.0849042,VALID,19.3192,VALID,149,VALID,1.82951,
2008-02-12, 01:17:00,VALID,916.831,VALID,0,VALID,93.6003,VALID,-0.0849042,VALID,19.3227,VALID,132,VALID,1.84746,
2008-02-12, 01:18:00,VALID,916.823,VALID,0,VALID,93.5443,VALID,-0.0849042,VALID,19.3357,VALID,139,VALID,1.49238,
2008-02-12, 01:19:00,VALID,916.819,VALID,0,VALID,93.4985,VALID,-0.0849042,VALID,19.3327,VALID,126,VALID,1.25563,
2008-02-12, 01:20:00,VALID,916.82,VALID,0,VALID,93.6702,VALID,-0.101885,VALID,19.3165,VALID,129,VALID,1.52115,
2008-02-12, 01:21:00,VALID,916.802,VALID,0,VALID,94.0542,VALID,-0.118866,VALID,19.2773,VALID,147,VALID,1.6756,
2008-02-12, 01:22:00,VALID,916.782,VALID,0,VALID,94.3429,VALID,-0.118866,VALID,19.2256,VALID,149,VALID,1.95422,
2008-02-12, 01:23:00,VALID,916.777,VALID,0,VALID,94.409,VALID,-0.101885,VALID,19.2127,VALID,143,VALID,1.88691,
2008-02-12, 01:24:00,VALID,916.769,VALID,0,VALID,94.3645,VALID,-0.0849042,VALID,19.2224,VALID,137,VALID,1.54215,
2008-02-12, 01:25:00,VALID,916.772,VALID,0,VALID,94.3759,VALID,-0.101885,VALID,19.2089,VALID,125,VALID,1.65752,
2008-02-12, 01:26:00,VALID,916.767,VALID,0,VALID,94.4586,VALID,-0.0679233,VALID,19.1792,VALID,123,VALID,1.33467,
2008-02-12, 01:27:00,VALID,916.77,VALID,0,VALID,94.6468,VALID,-0.0509425,VALID,19.1376,VALID,126,VALID,1.42649,
2008-02-12, 01:28:00,VALID,916.753,VALID,0,VALID,94.8503,VALID,-0.0339617,VALID,19.1204,VALID,136,VALID,1.87767,
2008-02-12, 01:29:00,VALID,916.737,VALID,0,VALID,94.8299,VALID,-0.0339617,VALID,19.1433,VALID,123,VALID,1.51387,
2008-02-12, 01:30:00,VALID,916.71,VALID,0,VALID,94.7002,VALID,-0.0339617,VALID,19.1528,VALID,131,VALID,1.29925,
2008-02-12, 01:31:00,VALID,916.709,VALID,0,VALID,94.6544,VALID,-0.0339617,VALID,19.1428,VALID,134,VALID,1.39761,
2008-02-12, 01:32:00,VALID,916.695,VALID,0,VALID,94.6239,VALID,-0.0169808,VALID,19.1266,VALID,136,VALID,0.947115,
2008-02-12, 01:33:00,VALID,916.663,VALID,0,VALID,94.6582,VALID,-0.0679233,VALID,19.1174,VALID,156,VALID,0.608854,
2008-02-12, 01:34:00,VALID,916.642,VALID,0,VALID,94.5247,VALID,-0.0679233,VALID,19.1139,VALID,116,VALID,0.0741279,
2008-02-12, 01:35:00,VALID,916.652,VALID,0,VALID,94.5273,VALID,-0.0679233,VALID,19.0912,VALID,122,VALID,0.0544819,
2008-02-12, 01:36:00,VALID,916.657,VALID,0,VALID,94.7969,VALID,-0.0679233,VALID,19.0592,VALID,138,VALID,0.308222,
2008-02-12, 01:37:00,VALID,916.667,VALID,0,VALID,94.8668,VALID,-0.0169808,VALID,19.0555,VALID,143,VALID,0.138021,
2008-02-12, 01:38:00,VALID,916.67,VALID,0,VALID,94.8681,VALID,-0.0679233,VALID,19.0492,VALID,145,VALID,0.138368,
2008-02-12, 01:39:00,VALID,916.696,VALID,0,VALID,94.9431,VALID,-0.0169808,VALID,19.0458,VALID,162,VALID,1.29759,
2008-02-12, 01:40:00,VALID,916.707,VALID,0,VALID,94.9316,VALID,-0.0169808,VALID,19.0622,VALID,165,VALID,0.772104,
2008-02-12, 01:41:00,VALID,916.732,VALID,0,VALID,94.849,VALID,-0.0679233,VALID,19.0687,VALID,169,VALID,0.721637,
2008-02-12, 01:42:00,VALID,916.754,VALID,0,VALID,94.8452,VALID,-0.0339617,VALID,19.075,VALID,167,VALID,1.09013,
2008-02-12, 01:43:00,VALID,916.768,VALID,0,VALID,94.9075,VALID,-0.0679233,VALID,19.0849,VALID,174,VALID,1.41443,
2008-02-12, 01:44:00,VALID,916.769,VALID,0,VALID,94.8083,VALID,-0.101885,VALID,19.0949,VALID,173,VALID,1.39426,
2008-02-12, 01:45:00,VALID,916.786,VALID,0,VALID,94.8172,VALID,-0.0679233,VALID,19.0879,VALID,174,VALID,1.66425,
2008-02-12, 01:46:00,VALID,916.797,VALID,0,VALID,94.76,VALID,-0.0849042,VALID,19.0882,VALID,173,VALID,1.22638,
2008-02-12, 01:47:00,VALID,916.779,VALID,0,VALID,94.6977,VALID,-0.0679233,VALID,19.0949,VALID,168,VALID,1.21912,
2008-02-12, 01:48:00,VALID,916.778,VALID,0,VALID,94.6392,VALID,0,VALID,19.0974,VALID,169,VALID,1.26211,
2008-02-12, 01:49:00,VALID,916.764,VALID,0,VALID,94.568,VALID,-0.0679233,VALID,19.1174,VALID,149,VALID,1.16225,
2008-02-12, 01:50:00,VALID,916.755,VALID,0,VALID,94.5374,VALID,-0.0339617,VALID,19.1076,VALID,154,VALID,0.251524,
2008-02-12, 01:51:00,VALID,916.748,VALID,0,VALID,94.6379,VALID,-0.0339617,VALID,19.1106,VALID,138,VALID,0.588068,
2008-02-12, 01:52:00,VALID,916.731,VALID,0,VALID,94.5044,VALID,-0.0169808,VALID,19.1333,VALID,152,VALID,1.69475,
2008-02-12, 01:53:00,VALID,916.744,VALID,0,VALID,94.2475,VALID,-0.0339617,VALID,19.169,VALID,150,VALID,0.910429,
2008-02-12, 01:54:00,VALID,916.754,VALID,0,VALID,94.0695,VALID,-0.0339617,VALID,19.182,VALID,163,VALID,1.34355,
2008-02-12, 01:55:00,VALID,916.752,VALID,0,VALID,94.0555,VALID,0,VALID,19.185,VALID,168,VALID,0.778161,
2008-02-12, 01:56:00,VALID,916.767,VALID,0,VALID,94.0962,VALID,0,VALID,19.1755,VALID,153,VALID,1.47675,
2008-02-12, 01:57:00,VALID,916.764,VALID,0,VALID,94.0339,VALID,0,VALID,19.1917,VALID,139,VALID,1.2518,
2008-02-12, 01:58:00,VALID,916.746,VALID,0,VALID,93.9436,VALID,-0.0679233,VALID,19.2045,VALID,154,VALID,0.47237,
2008-02-12, 01:59:00,VALID,916.721,VALID,0,VALID,93.9283,VALID,-0.0339617,VALID,19.2204,VALID,159,VALID,1.17721,
2008-02-12, 02:00:00,VALID,916.688,VALID,0,VALID,93.852,VALID,-0.0509425,VALID,19.2404,VALID,149,VALID,1.98383,
2008-02-12, 02:01:00,VALID,916.67,VALID,0,VALID,93.7732,VALID,0,VALID,19.2302,VALID,124,VALID,1.7872,
2008-02-12, 02:02:00,VALID,916.633,VALID,0,VALID,93.8724,VALID,0.0169808,VALID,19.2075,VALID,119,VALID,1.35826,
2008-02-12, 02:03:00,VALID,916.606,VALID,0,VALID,94.2399,VALID,-0.0339617,VALID,19.1792,VALID,136,VALID,2.02162,
2008-02-12, 02:04:00,VALID,916.576,VALID,0,VALID,94.334,VALID,-0.0339617,VALID,19.1363,VALID,130,VALID,1.43004,
2008-02-12, 02:05:00,VALID,916.545,VALID,0,VALID,94.47,VALID,-0.0169808,VALID,19.1037,VALID,150,VALID,0.655469,
2008-02-12, 02:06:00,VALID,916.532,VALID,0,VALID,94.7523,VALID,-0.0679233,VALID,19.0782,VALID,130,VALID,1.27548,
2008-02-12, 02:07:00,VALID,916.529,VALID,0,VALID,94.966,VALID,-0.0509425,VALID,19.0231,VALID,133,VALID,1.87127,
2008-02-12, 02:08:00,VALID,916.526,VALID,0,VALID,95.1745,VALID,-0.0509425,VALID,18.9742,VALID,132,VALID,1.65879,
2008-02-12, 02:09:00,VALID,916.525,VALID,0,VALID,95.4848,VALID,-0.0169808,VALID,18.9257,VALID,136,VALID,1.51086,
2008-02-12, 02:10:00,VALID,916.545,VALID,0,VALID,95.7251,VALID,-0.0169808,VALID,18.8806,VALID,131,VALID,1.35499,
2008-02-12, 02:11:00,VALID,916.567,VALID,0,VALID,95.9998,VALID,-0.0679233,VALID,18.8384,VALID,133,VALID,1.82958,
2008-02-12, 02:12:00,VALID,916.578,VALID,0,VALID,96.1079,VALID,-0.0169808,VALID,18.8118,VALID,133,VALID,1.26296,
2008-02-12, 02:13:00,VALID,916.587,VALID,0,VALID,96.16,VALID,0.0169808,VALID,18.837,VALID,149,VALID,1.4613,
2008-02-12, 02:14:00,VALID,916.591,VALID,0,VALID,95.9909,VALID,0.0509425,VALID,18.856,VALID,146,VALID,1.53361,
2008-02-12, 02:15:00,VALID,916.599,VALID,0,VALID,95.8904,VALID,0.0339617,VALID,18.853,VALID,137,VALID,1.43477,
2008-02-12, 02:16:00,VALID,916.585,VALID,0,VALID,95.9604,VALID,0.0339617,VALID,18.8432,VALID,128,VALID,1.37388,
2008-02-12, 02:17:00,VALID,916.564,VALID,0,VALID,96.0303,VALID,0.0509425,VALID,18.8273,VALID,148,VALID,1.28032,
2008-02-12, 02:18:00,VALID,916.556,VALID,0,VALID,96.1028,VALID,0.0509425,VALID,18.8205,VALID,155,VALID,1.37221,
2008-02-12, 02:19:00,VALID,916.539,VALID,0,VALID,96.188,VALID,0,VALID,18.827,VALID,145,VALID,1.70455,
2008-02-12, 02:20:00,VALID,916.54,VALID,0,VALID,96.1117,VALID,0.0509425,VALID,18.8367,VALID,142,VALID,1.42551,
2008-02-12, 02:21:00,VALID,916.521,VALID,0,VALID,96.0023,VALID,0.0169808,VALID,18.8629,VALID,144,VALID,1.37464,
2008-02-12, 02:22:00,VALID,916.521,VALID,0,VALID,95.9756,VALID,0.0339617,VALID,18.8625,VALID,148,VALID,1.59684,
2008-02-12, 02:23:00,VALID,916.53,VALID,0,VALID,95.8459,VALID,0.0849042,VALID,18.8822,VALID,135,VALID,1.59012,
2008-02-12, 02:24:00,VALID,916.551,VALID,0,VALID,95.7645,VALID,0.0679233,VALID,18.8754,VALID,148,VALID,1.38449,
2008-02-12, 02:25:00,VALID,916.552,VALID,0,VALID,95.7849,VALID,0.0679233,VALID,18.8847,VALID,160,VALID,1.44692,
2008-02-12, 02:26:00,VALID,916.544,VALID,0,VALID,95.6641,VALID,0.101885,VALID,18.9143,VALID,140,VALID,1.60099,
2008-02-12, 02:27:00,VALID,916.533,VALID,0,VALID,95.467,VALID,0.0339617,VALID,18.9542,VALID,139,VALID,1.52834,
2008-02-12, 02:28:00,VALID,916.521,VALID,0,VALID,95.3182,VALID,-0.0509425,VALID,18.9557,VALID,131,VALID,1.39714,
2008-02-12, 02:29:00,VALID,916.495,VALID,0,VALID,95.2508,VALID,-0.0849042,VALID,18.9619,VALID,122,VALID,1.19222,
2008-02-12, 02:30:00,VALID,916.476,VALID,0,VALID,95.205,VALID,-0.0849042,VALID,18.9489,VALID,125,VALID,1.29297,
2008-02-12, 02:31:00,VALID,916.451,VALID,0,VALID,95.289,VALID,-0.0849042,VALID,18.9202,VALID,124,VALID,1.72347,
2008-02-12, 02:32:00,VALID,916.438,VALID,0,VALID,95.4759,VALID,-0.0849042,VALID,18.8808,VALID,123,VALID,1.50213,
2008-02-12, 02:33:00,VALID,916.414,VALID,0,VALID,95.6526,VALID,-0.0339617,VALID,18.8319,VALID,111,VALID,1.38903,
2008-02-12, 02:34:00,VALID,916.4,VALID,0,VALID,95.8714,VALID,-0.0509425,VALID,18.7965,VALID,130,VALID,1.41353,
2008-02-12, 02:35:00,VALID,916.388,VALID,0,VALID,96.1854,VALID,-0.0509425,VALID,18.7765,VALID,135,VALID,2.0708,
2008-02-12, 02:36:00,VALID,916.357,VALID,0,VALID,96.1002,VALID,-0.0679233,VALID,18.8032,VALID,139,VALID,1.42355,
2008-02-12, 02:37:00,VALID,916.35,VALID,0,VALID,96.0774,VALID,-0.0849042,VALID,18.797,VALID,137,VALID,1.96094,
2008-02-12, 02:38:00,VALID,916.326,VALID,0,VALID,96.1626,VALID,-0.0849042,VALID,18.8134,VALID,142,VALID,2.00305,
2008-02-12, 02:39:00,VALID,916.314,VALID,0,VALID,95.9362,VALID,-0.0509425,VALID,18.8257,VALID,131,VALID,1.39023,
2008-02-12, 02:40:00,VALID,916.28,VALID,0,VALID,95.9184,VALID,-0.0679233,VALID,18.806,VALID,122,VALID,1.54222,
2008-02-12, 02:41:00,VALID,916.273,VALID,0,VALID,96.0087,VALID,-0.0169808,VALID,18.793,VALID,124,VALID,1.81302,
2008-02-12, 02:42:00,VALID,916.26,VALID,0,VALID,96.1193,VALID,-0.0169808,VALID,18.7932,VALID,126,VALID,2.0181,
2008-02-12, 02:43:00,VALID,916.252,VALID,0,VALID,96.2045,VALID,0.0509425,VALID,18.7696,VALID,138,VALID,1.6183,
2008-02-12, 02:44:00,VALID,916.237,VALID,0,VALID,96.2783,VALID,0.0339617,VALID,18.7636,VALID,125,VALID,0.631288,
2008-02-12, 02:45:00,VALID,916.242,VALID,0,VALID,96.3482,VALID,0.0169808,VALID,18.7334,VALID,148,VALID,1.27704,
2008-02-12, 02:46:00,VALID,916.252,VALID,0,VALID,96.3457,VALID,0.0339617,VALID,18.7694,VALID,142,VALID,1.8457,
2008-02-12, 02:47:00,VALID,916.254,VALID,0,VALID,96.0672,VALID,0.0509425,VALID,18.8148,VALID,137,VALID,1.47712,
2008-02-12, 02:48:00,VALID,916.283,VALID,0,VALID,95.8841,VALID,0.0679233,VALID,18.8242,VALID,138,VALID,1.14497,
2008-02-12, 02:49:00,VALID,916.29,VALID,0,VALID,95.9273,VALID,0,VALID,18.837,VALID,127,VALID,1.52042,
2008-02-12, 02:50:00,VALID,916.276,VALID,0,VALID,95.7302,VALID,0.0169808,VALID,18.8178,VALID,109,VALID,1.37936,
2008-02-12, 02:51:00,VALID,916.267,VALID,0,VALID,95.8764,VALID,0,VALID,18.7823,VALID,131,VALID,1.51637,
2008-02-12, 02:52:00,VALID,916.268,VALID,0,VALID,96.2249,VALID,0.0169808,VALID,18.7436,VALID,147,VALID,1.59084,
2008-02-12, 02:53:00,VALID,916.253,VALID,0,VALID,96.544,VALID,0.0339617,VALID,18.7239,VALID,143,VALID,1.73361,
2008-02-12, 02:54:00,VALID,916.231,VALID,0,VALID,96.408,VALID,0,VALID,18.7531,VALID,143,VALID,1.71437,
2008-02-12, 02:55:00,VALID,916.225,VALID,0,VALID,96.2808,VALID,0.0169808,VALID,18.7788,VALID,151,VALID,1.82106,
2008-02-12, 02:56:00,VALID,916.21,VALID,0,VALID,96.1956,VALID,0.0509425,VALID,18.799,VALID,146,VALID,1.88626,
2008-02-12, 02:57:00,VALID,916.201,VALID,0,VALID,96.1104,VALID,0.0339617,VALID,18.8242,VALID,156,VALID,1.92764,
2008-02-12, 02:58:00,VALID,916.188,VALID,0,VALID,95.9883,VALID,0.0679233,VALID,18.8629,VALID,151,VALID,2.30646,
2008-02-12, 02:59:00,VALID,916.182,VALID,0,VALID,95.6247,VALID,0.0849042,VALID,18.9181,VALID,157,VALID,1.86772,
2008-02-12, 03:00:00,VALID,916.19,VALID,0,VALID,95.4148,VALID,0.0169808,VALID,18.967,VALID,154,VALID,2.41521,
2008-02-12, 03:01:00,VALID,916.2,VALID,0,VALID,95.0054,VALID,0.0509425,VALID,19.0548,VALID,152,VALID,1.80098,
2008-02-12, 03:02:00,VALID,916.202,VALID,0,VALID,94.6404,VALID,0.0339617,VALID,19.1099,VALID,148,VALID,1.38574,
2008-02-12, 03:03:01,VALID,916.203,VALID,0,VALID,94.526,VALID,0.0339617,VALID,19.1162,VALID,157,VALID,2.3649,
2008-02-12, 03:04:00,VALID,916.211,VALID,0,VALID,94.4154,VALID,0,VALID,19.1159,VALID,141,VALID,1.12706,
2008-02-12, 03:05:01,VALID,916.212,VALID,0,VALID,94.4535,VALID,0.0169808,VALID,19.1162,VALID,148,VALID,1.59034,
2008-02-12, 03:06:00,VALID,916.189,VALID,0,VALID,94.5209,VALID,0.0169808,VALID,19.1199,VALID,139,VALID,1.82246,
2008-02-12, 03:07:01,VALID,916.193,VALID,0,VALID,94.4637,VALID,0.0509425,VALID,19.1196,VALID,159,VALID,1.49863,
2008-02-12, 03:08:00,VALID,916.176,VALID,0,VALID,94.4739,VALID,0.0339617,VALID,19.1264,VALID,151,VALID,1.76228,
2008-02-12, 03:09:00,VALID,916.172,VALID,0,VALID,94.4472,VALID,0.0339617,VALID,19.1296,VALID,150,VALID,1.72904,
2008-02-12, 03:10:00,VALID,916.156,VALID,0,VALID,94.3759,VALID,0.0339617,VALID,19.1486,VALID,153,VALID,1.43559,
2008-02-12, 03:11:00,VALID,916.152,VALID,0,VALID,94.2399,VALID,0,VALID,19.1678,VALID,149,VALID,1.29031,
2008-02-12, 03:12:00,VALID,916.148,VALID,0,VALID,94.1585,VALID,0.0509425,VALID,19.1975,VALID,148,VALID,1.48383,
2008-02-12, 03:13:00,VALID,916.141,VALID,0,VALID,93.9652,VALID,-0.0679233,VALID,19.2214,VALID,145,VALID,1.34284,
2008-02-12, 03:14:01,VALID,916.157,VALID,0,VALID,93.8088,VALID,-0.0339617,VALID,19.2411,VALID,135,VALID,1.0037,
2008-02-12, 03:15:01,VALID,916.144,VALID,0,VALID,93.8152,VALID,-0.0849042,VALID,19.2446,VALID,146,VALID,1.51944,
2008-02-12, 03:16:00,VALID,916.136,VALID,0,VALID,93.8622,VALID,-0.0679233,VALID,19.2249,VALID,131,VALID,1.66787,
2008-02-12, 03:17:01,VALID,916.107,VALID,0,VALID,94.011,VALID,-0.0509425,VALID,19.2147,VALID,127,VALID,1.64211,
2008-02-12, 03:18:00,VALID,916.091,VALID,0,VALID,94.0034,VALID,-0.0679233,VALID,19.2254,VALID,143,VALID,1.57393,
2008-02-12, 03:19:00,VALID,916.077,VALID,0,VALID,93.9461,VALID,-0.0679233,VALID,19.2284,VALID,150,VALID,1.21953,
2008-02-12, 03:20:00,VALID,916.073,VALID,0,VALID,93.9372,VALID,-0.0509425,VALID,19.2346,VALID,143,VALID,1.84928,
2008-02-12, 03:21:00,VALID,916.057,VALID,0,VALID,93.8482,VALID,-0.0849042,VALID,19.2706,VALID,146,VALID,1.49873,
2008-02-12, 03:22:01,VALID,916.048,VALID,0,VALID,93.6549,VALID,-0.0509425,VALID,19.2895,VALID,150,VALID,1.00654,
2008-02-12, 03:23:00,VALID,916.029,VALID,0,VALID,93.6346,VALID,-0.0849042,VALID,19.296,VALID,131,VALID,1.38418,
2008-02-12, 03:24:01,VALID,916.035,VALID,0,VALID,93.6867,VALID,-0.0509425,VALID,19.2995,VALID,136,VALID,1.89968,
2008-02-12, 03:25:00,VALID,916.026,VALID,0,VALID,93.7134,VALID,-0.0679233,VALID,19.3162,VALID,148,VALID,2.6051,
2008-02-12, 03:26:01,VALID,916.024,VALID,0,VALID,93.557,VALID,-0.101885,VALID,19.3547,VALID,136,VALID,1.79745,
2008-02-12, 03:27:01,VALID,916.008,VALID,0,VALID,93.2582,VALID,-0.0679233,VALID,19.4195,VALID,150,VALID,1.59115,
2008-02-12, 03:28:00,VALID,916.004,VALID,0,VALID,92.9212,VALID,0.0339617,VALID,19.467,VALID,141,VALID,1.59462,
2008-02-12, 03:29:00,VALID,916.008,VALID,0,VALID,92.9696,VALID,0.0679233,VALID,19.437,VALID,134,VALID,1.92374,
2008-02-12, 03:30:00,VALID,916.009,VALID,0,VALID,93.1666,VALID,0.0169808,VALID,19.4021,VALID,133,VALID,1.68296,
2008-02-12, 03:31:01,VALID,915.994,VALID,0,VALID,93.5049,VALID,0.0169808,VALID,19.3337,VALID,133,VALID,1.86719,
2008-02-12, 03:32:00,VALID,915.979,VALID,0,VALID,93.8063,VALID,0.0339617,VALID,19.2811,VALID,152,VALID,1.99619,